Terminal Aerodrome Forecast
Issued by NWS

Home | Current Version | Previous Version | Text Only | Print | Product List | Glossary On
Versions: 1 2 3 4 5 6 7 8 9 10 11 12 13 14 15 16 17 18 19 20 21 22 23 24 25 26 27 28 29 30 31 32 33 34 35 36 37 38
000
FTUS45 KGGW 260500
TAFGDV
TAF
KGDV 260539Z 2606/2706 02007KT P6SM OVC015
     FM261200 VRB05KT P6SM VCSH OVC009
     FM270000 VRB06KT 3SM -SN OVC010
      AMD LTD TO CLD VIS AND WIND=

USA.gov is the U.S. government's official web portal to all federal, state and local government web resources and services.